Wind_Speed
1 4 4 3 3 2 11 9 2 9 8 6 2 1 2 1 2 1 1 12 22 28 26 24 23 22 19 20 18 16 14 20 24 25 24 24 24 22 18 19 19 20 21 21 20 18 16 15 14
4 1 3 2 5 8 12 10 17 9 9 9 7 7 3 2 1 2 7 12 24 27 26 23 23 22 19 20 20 17 14 17 23 24 25 25 24 22 18 18 19 19 20 20 18 17 15 15 16
4 2 2 4 7 19 11 8 13 4 9 9 4 5 6 3 2 6 5 22 25 25 24 24 24 22 21 19 19 18 17 16 20 22 23 24 24 20 18 18 19 19 20 19 18 16 14 14 15
3 1 1 9 15 16 14 6 9 9 4 6 13 7 6 1 4 2 19 24 25 24 24 24 24 21 22 21 18 17 18 17 18 21 22 21 17 17 18 18 19 19 19 18 17 15 14 14 13
2 1 6 10 19 8 10 15 7 15 12 10 19 13 7 3 9 12 21 26 26 25 23 23 24 21 22 20 17 16 16 17 18 18 18 18 16 16 17 16 18 17 16 16 15 13 13 13 11
2 2 7 17 20 20 15 11 19 12 10 13 12 17 11 15 3 16 22 26 24 24 24 22 22 21 20 20 17 15 15 15 16 18 15 15 15 15 15 14 14 14 15 15 13 11 11 10 9
5 7 16 18 20 20 17 13 13 17 8 12 9 16 8 10 8 15 25 26 24 25 25 23 21 21 21 21 19 15 13 16 17 16 16 16 16 15 15 14 13 13 14 14 13 10 9 7 6
3 4 17 14 16 22 17 8 14 12 17 4 13 9 7 14 15 15 28 28 28 29 27 25 22 22 22 20 19 17 14 16 19 17 18 16 15 14 14 14 13 12 13 12 12 9 7 5 4
3 7 12 19 21 17 10 14 23 10 8 6 10 7 14 30 22 10 12 27 24 27 29 26 24 21 21 22 18 17 15 14 17 19 19 18 15 13 13 14 14 13 12 10 9 8 7 5 3
9 10 18 12 17 11 9 12 12 9 16 8 7 9 25 28 22 12 14 22 22 20 24 27 24 21 20 22 20 17 18 15 13 15 17 17 17 15 14 14 13 12 11 10 9 7 6 4 4
8 14 14 16 19 10 7 6 7 13 15 10 17 19 18 23 26 15 14 14 12 20 22 25 25 21 18 19 20 19 17 16 13 12 14 15 15 15 14 14 13 12 10 9 8 6 5 5 4
12 15 17 14 14 10 13 5 6 15 22 10 14 23 18 16 15 18 17 20 7 18 27 28 25 22 17 15 16 18 18 18 16 13 13 14 14 14 14 13 11 11 10 9 8 6 5 5 4
15 16 13 18 17 10 7 9 5 13 18 13 13 22 19 18 21 32 35 32 13 15 25 30 27 22 18 14 15 16 18 17 16 16 15 14 14 14 12 11 9 9 9 8 8 7 6 5 4
1 11 17 12 14 10 8 14 8 5 10 15 17 22 21 19 17 25 30 32 30 24 17 25 27 24 15 13 13 16 17 17 18 18 17 15 14 13 13 10 9 8 8 7 7 7 6 6 5
9 10 16 15 10 6 5 10 9 10 15 16 18 18 19 19 24 30 30 28 31 28 18 23 27 25 16 11 12 14 15 17 19 19 19 18 16 15 12 12 10 10 9 8 8 8 7 6 6
6 11 6 10 8 3 6 12 6 9 5 8 7 17 18 17 22 26 30 24 24 36 33 30 23 22 18 15 12 13 14 16 17 20 20 20 20 18 16 13 13 11 11 11 9 8 8 7 7
7 2 7 4 12 7 3 3 9 4 5 7 3 1 16 14 18 20 28 29 28 38 32 16 23 11 14 16 15 14 12 14 16 18 21 22 22 21 20 17 15 13 12 12 11 10 8 7 7
7 5 3 5 7 9 8 7 21 4 6 6 5 3 6 16 11 20 23 27 32 36 24 17 12 13 14 15 14 12 14 17 18 19 23 23 23 23 22 18 17 16 15 14 12 11 10 8 9
4 10 9 7 7 7 11 6 17 5 4 6 5 5 5 5 7 6 20 25 20 30 28 30 31 19 14 20 22 16 18 21 18 22 25 27 25 26 24 23 20 19 18 16 14 11 10 9 10
5 9 8 10 5 8 5 8 17 5 1 1 3 6 5 5 5 6 11 25 30 33 24 32 31 30 29 27 21 14 10 10 11 17 22 21 22 25 25 24 21 21 19 17 14 12 8 6 5
3 6 6 7 6 7 3 3 6 2 3 3 1 1 2 4 9 7 11 16 20 24 28 27 35 34 33 28 27 25 10 12 21 23 24 27 21 25 22 21 18 18 15 11 10 7 6 6 7
4 1 7 14 7 3 2 5 5 6 5 1 3 3 2 3 3 4 5 7 16 21 27 30 34 28 27 26 27 23 19 19 23 22 19 20 19 23 20 20 19 14 4 2 5 8 8 7 5
2 1 9 9 3 6 2 1 1 2 7 3 5 5 4 3 4 6 6 10 11 12 18 26 29 35 36 34 33 26 26 29 29 25 27 25 18 18 21 13 16 14 7 4 4 8 11 8 6
1 5 7 3 3 3 2 2 3 1 3 3 4 4 5 6 6 4 3 3 6 8 13 15 20 26 28 28 27 28 33 33 28 29 29 23 13 14 5 11 18 17 12 12 8 11 10 11 7
7 4 3 2 3 2 3 3 3 8 5 1 11 8 7 10 6 3 3 5 6 5 5 8 10 9 9 11 13 19 22 23 23 27 26 26 23 20 16 17 16 17 19 16 12 13 13 10 7
3 2 2 4 3 4 2 4 5 6 6 7 7 6 6 3 4 5 3 8 8 8 4 3 6 8 8 8 8 9 11 13 16 20 23 25 26 23 20 16 19 19 18 16 13 12 11 7 4
3 3 1 5 3 4 2 1 4 10 15 12 11 9 8 8 7 7 8 8 2 3 5 6 2 1 6 7 7 6 6 6 7 10 13 18 23 23 22 21 22 21 18 14 12 11 10 7 6
1 2 2 3 3 4 2 2 2 6 6 5 7 7 7 7 8 7 8 13 10 8 8 8 6 3 4 6 7 6 6 6 6 7 11 15 19 22 23 23 22 20 17 12 9 9 8 7 6
3 2 4 4 3 3 3 1 2 3 0 4 4 5 6 7 6 7 8 13 13 13 13 9 7 5 4 3 4 5 6 7 7 8 10 14 18 22 22 22 21 17 12 9 9 8 8 5 3
0 2 3 3 2 4 2 2 4 4 4 4 5 5 4 5 6 6 8 10 12 13 13 11 8 5 2 2 4 4 4 5 7 10 13 16 20 21 22 19 17 13 11 10 9 8 5 2 3
Wind_Direction
310 308 335 75 175 228 224 225 264 179 184 192 280 330 303 48 227 255 269 180 159 153 157 157 154 152 148 145 146 139 131 149 151 149 148 142 136 131 131 125 124 125 124 122 121 117 111 109 106
338 74 103 94 210 218 222 218 221 204 189 146 343 350 294 286 241 118 131 174 159 154 155 155 157 153 148 149 148 144 128 147 154 151 146 140 135 133 133 127 127 127 125 124 121 117 115 107 101
287 195 156 198 218 227 227 212 225 210 153 145 154 352 319 284 347 164 183 158 157 155 157 157 157 154 145 145 149 147 137 124 145 148 144 135 130 130 128 130 132 130 129 127 122 120 116 113 104
210 69 278 234 226 231 226 219 218 198 107 159 149 252 315 284 287 217 154 156 153 155 157 157 155 150 148 146 149 146 145 133 129 131 132 130 139 134 132 135 137 135 134 130 129 119 114 117 110
186 162 224 230 237 224 229 252 276 206 177 176 161 191 241 252 261 181 156 158 154 159 158 157 156 151 155 153 155 150 147 147 144 138 138 139 131 133 132 136 141 133 133 133 129 119 113 115 114
234 224 227 225 230 224 232 248 260 261 187 170 177 162 213 259 304 180 157 159 156 159 159 159 156 153 150 146 147 144 144 142 146 147 138 135 141 137 130 129 131 132 136 136 130 125 118 109 106
227 219 231 230 227 221 223 230 253 255 206 178 175 163 173 200 219 198 167 160 160 160 161 155 152 152 152 150 148 144 142 145 142 141 143 148 144 140 131 132 131 131 140 145 146 139 132 128 117
214 243 239 235 233 228 222 218 244 232 233 170 169 178 188 168 188 209 175 162 166 163 161 154 154 154 157 153 157 151 141 144 145 148 151 158 143 141 138 134 135 138 150 155 154 155 153 150 143
228 233 235 229 232 225 194 211 244 262 251 199 184 179 146 145 169 152 215 161 163 160 157 156 156 160 162 164 149 156 148 140 150 157 162 154 151 152 152 150 148 149 152 157 160 165 168 172 176
216 229 234 236 240 238 215 208 231 270 254 222 186 100 136 135 130 70 344 129 143 154 154 156 154 153 159 166 164 154 159 151 148 156 163 169 167 165 160 158 157 157 161 166 170 177 186 183 179
226 236 246 248 260 242 241 233 223 236 270 228 200 161 158 137 116 104 336 333 162 152 153 160 155 154 155 161 173 172 161 173 163 167 163 169 168 168 167 168 171 171 174 179 185 193 198 196 202
239 236 243 256 253 252 227 328 242 208 240 309 202 170 158 146 140 138 219 250 225 149 156 163 157 158 157 161 174 183 181 173 178 185 180 177 179 178 176 178 182 184 185 190 197 203 201 197 203
225 230 247 243 260 271 246 249 289 258 237 306 236 167 168 156 164 162 198 219 177 183 154 167 163 161 160 162 172 181 190 190 189 194 194 190 196 191 186 187 196 204 206 206 206 196 200 211 228
218 242 245 265 242 242 233 260 342 258 315 284 209 172 168 169 165 176 194 194 171 182 184 162 165 164 166 164 173 183 188 199 203 204 206 203 201 200 200 207 210 210 208 209 206 216 220 224 230
223 287 248 236 227 235 137 276 257 298 286 249 210 168 172 174 174 192 192 189 163 153 198 189 178 170 164 185 183 193 202 199 210 217 218 216 211 210 218 220 221 220 220 216 218 228 236 234 241
210 232 193 196 180 66 152 237 290 277 292 199 250 172 167 180 186 196 171 182 163 171 181 195 199 190 162 168 185 195 204 207 213 218 224 222 222 220 224 230 230 227 229 227 227 233 233 240 248
196 191 207 147 187 127 131 317 297 268 46 78 43 324 169 173 172 184 176 177 174 172 182 198 178 164 168 182 179 189 208 220 222 225 227 228 227 228 230 232 234 230 230 224 221 221 224 246 259
162 139 152 155 176 191 166 261 282 342 41 62 60 77 153 185 165 168 174 176 180 184 189 192 167 143 180 160 185 193 208 220 223 230 234 232 235 237 235 233 233 229 224 218 217 216 226 241 263
168 142 129 93 97 140 207 302 287 318 34 49 50 80 90 112 94 122 172 177 180 179 190 192 199 202 207 232 205 208 208 215 221 233 237 239 237 242 243 242 232 226 223 219 214 214 227 250 266
177 135 124 102 122 111 88 260 274 335 280 301 41 50 85 106 126 221 171 181 185 195 195 190 201 215 217 217 218 252 208 212 240 253 251 242 241 243 241 237 233 225 221 217 212 215 221 219 257
138 148 165 127 155 98 193 278 281 58 270 231 106 120 75 135 148 187 211 179 167 189 199 198 205 213 217 224 222 230 229 248 263 262 260 247 252 254 243 233 235 231 215 220 229 234 246 241 258
149 339 158 146 131 106 25 314 50 294 301 308 312 345 345 64 152 156 176 157 194 202 208 212 219 219 214 221 233 229 225 248 251 258 275 252 257 256 237 233 224 185 163 350 303 314 285 278 262
54 27 149 157 111 117 50 279 334 200 224 272 275 289 295 266 215 188 179 162 189 196 217 214 216 225 229 230 229 220 222 226 245 255 263 269 273 256 244 209 188 202 213 247 296 305 291 272 243
273 82 60 63 42 74 225 62 332 141 25 145 251 277 294 303 267 253 237 231 211 208 203 197 204 219 224 231 232 228 227 232 232 242 235 235 243 238 220 214 213 198 208 211 215 233 245 243 248
83 50 115 75 32 72 23 31 299 326 348 276 173 175 148 263 240 260 299 284 270 242 253 234 220 227 230 230 226 230 232 231 233 221 218 209 197 184 178 184 187 200 204 200 197 201 212 219 221
126 238 112 132 146 95 33 350 350 343 15 50 63 52 80 154 67 55 359 291 302 318 335 309 255 252 241 240 230 227 219 217 217 222 216 207 201 189 185 195 192 198 192 179 179 198 209 216 237
308 45 239 109 67 91 330 360 28 8 40 42 65 68 68 79 71 54 42 61 69 1 18 21 334 228 204 210 214 213 209 205 201 203 211 212 202 197 189 188 181 183 183 179 181 198 204 206 213
295 308 84 9 91 84 15 48 84 13 38 16 64 66 63 60 61 53 45 47 49 52 54 53 54 69 151 176 184 193 198 207 205 203 204 202 201 195 181 174 176 177 176 181 189 198 203 201 209
345 22 48 107 58 128 132 62 172 269 244 120 85 74 83 75 62 55 43 44 46 48 52 53 60 88 117 164 179 178 172 183 191 190 191 189 185 182 177 174 172 171 178 188 197 204 199 173 191
31 77 61 92 310 52 76 355 352 239 188 147 100 68 57 52 41 34 41 52 48 43 42 39 39 36 38 160 178 176 171 175 175 176 177 177 174 173 173 172 174 181 185 186 186 191 195 177 227
Height
801 801 802 803 816 817 804 794 786 784 788 785 785 784 786 786 786 792 781 783 784 787 793 798 801 802 805 807 810 812 814 816 818 820 822 824 828 831 833 835 837 839 841 843 845 846 848 848 849
801 801 802 808 811 811 793 788 786 782 776 780 785 782 785 784 783 782 782 783 787 789 793 798 801 803 805 808 810 813 815 817 819 821 823 826 829 833 835 838 839 842 843 845 846 848 849 850 851
800 800 803 805 800 786 791 787 783 776 777 783 794 789 785 784 782 782 780 783 788 791 795 798 801 803 806 809 811 813 816 819 820 822 825 828 830 834 836 839 841 843 845 847 848 849 850 851 852
799 801 802 795 789 782 786 780 776 776 781 779 777 799 786 788 785 781 781 784 787 792 796 798 801 804 806 809 812 814 817 820 822 824 827 830 833 836 838 840 842 844 846 848 850 850 852 853 854
797 800 796 791 788 785 784 779 776 771 773 779 778 785 795 786 782 781 782 785 788 793 797 799 802 804 807 810 813 815 818 821 824 826 829 832 835 838 839 841 844 846 848 850 852 853 854 854 855
797 795 791 785 779 779 781 779 775 773 768 772 777 779 787 786 783 783 781 786 788 792 796 800 802 805 807 811 814 816 819 822 825 828 831 834 836 839 840 843 845 848 850 851 853 854 855 856 857
796 793 784 777 771 772 775 776 779 772 769 771 767 776 775 779 781 784 781 785 788 790 794 799 803 806 808 811 814 817 820 823 826 829 832 835 837 840 841 844 846 849 851 852 854 855 856 857 857
794 792 782 778 774 771 767 776 770 769 765 757 760 767 773 769 775 781 782 783 785 787 791 796 802 805 808 812 814 818 821 823 827 830 833 835 838 841 842 844 847 849 851 853 854 855 856 856 857
790 792 784 778 774 766 764 772 766 763 762 756 755 757 753 753 772 780 781 782 788 788 789 793 800 804 807 812 815 818 822 824 827 830 833 836 838 841 843 844 846 848 851 853 854 855 856 857 857
790 784 777 771 769 765 765 766 763 766 758 756 753 753 756 760 760 775 775 747 779 791 789 792 798 802 807 810 814 818 822 825 828 830 833 836 838 840 842 844 846 847 850 852 854 855 856 856 857
783 783 774 771 766 766 763 763 761 765 765 749 750 755 759 759 761 778 786 780 782 788 789 793 796 801 806 810 814 818 821 824 828 831 833 836 838 840 841 843 845 847 849 851 853 854 855 855 856
784 776 775 770 766 765 762 769 762 766 757 752 745 744 752 759 763 774 788 786 783 783 785 792 795 800 805 809 813 817 820 823 827 830 833 835 838 839 840 843 845 846 847 849 851 852 853 854 855
777 772 770 768 768 766 764 765 771 762 752 753 750 748 751 758 765 772 782 786 778 786 787 791 793 798 803 807 811 815 820 823 827 829 832 834 837 839 840 842 844 846 847 849 850 851 852 853 854
770 769 769 765 762 762 765 760 767 755 758 752 742 747 748 755 756 767 775 775 777 783 788 789 793 796 801 805 809 813 817 821 826 827 831 833 835 838 839 841 842 844 846 847 849 851 851 851 852
769 778 766 764 759 760 763 766 765 762 759 750 738 747 749 747 750 753 758 762 766 772 788 790 793 794 794 801 806 810 814 816 822 826 829 832 834 836 838 840 841 843 845 846 848 849 851 851 851
771 770 762 756 759 770 762 758 764 767 754 744 739 733 740 741 744 749 750 764 772 779 782 792 793 795 787 794 802 807 811 814 818 822 827 829 832 833 836 837 839 841 843 845 846 848 849 850 850
764 760 756 759 758 764 765 763 767 760 754 750 750 745 738 746 749 755 753 764 774 779 783 788 788 782 785 792 799 804 808 812 816 820 824 826 828 831 833 834 837 840 841 843 844 845 847 849 849
755 753 752 751 758 762 773 780 781 753 751 749 749 749 746 743 748 755 762 766 772 777 779 786 783 783 791 792 799 801 805 809 813 817 820 822 825 828 830 831 834 837 839 839 842 843 845 846 847
751 749 753 755 757 761 767 778 767 750 749 748 748 748 748 748 753 762 763 767 772 773 778 779 783 787 787 787 796 801 799 804 808 812 817 819 821 824 826 828 830 833 836 837 839 840 842 844 845
749 747 753 760 758 760 766 774 755 742 748 750 749 748 751 753 757 760 762 769 774 775 779 774 778 785 788 789 794 799 798 802 804 809 813 815 817 818 821 823 827 830 833 836 837 838 839 841 843
750 746 752 754 753 752 761 768 755 743 747 746 749 752 754 757 756 762 765 763 768 773 775 777 780 780 784 790 793 798 796 800 802 806 808 812 813 816 818 819 824 829 831 834 836 837 838 839 841
746 748 744 749 747 757 756 759 757 752 748 745 746 750 752 752 756 759 760 762 765 768 775 778 781 783 785 790 792 795 798 803 805 805 808 809 810 814 814 817 820 823 827 830 834 835 838 840 841
745 745 745 750 749 750 765 764 762 756 758 748 746 749 751 756 758 760 762 762 767 771 773 775 776 781 784 785 789 790 795 797 800 803 805 807 809 811 811 814 817 819 822 826 829 833 838 840 840
747 748 750 751 753 760 763 764 748 751 744 748 748 749 753 756 756 757 759 761 766 766 771 775 775 777 778 780 781 785 788 790 794 797 799 801 803 805 805 810 814 817 821 823 825 831 834 837 836
750 754 756 762 768 766 764 762 753 749 752 749 748 755 758 764 762 758 758 761 764 769 770 770 769 770 774 776 776 780 782 785 787 793 792 794 799 800 802 807 811 814 819 821 822 826 830 830 829
755 754 751 759 764 765 765 766 757 757 755 747 750 757 761 765 760 762 763 761 761 764 764 764 767 770 772 772 774 777 782 783 783 788 789 791 793 796 799 803 805 814 817 817 818 824 825 826 825
749 757 752 759 767 763 778 768 760 757 752 756 760 762 767 767 766 766 766 765 766 767 764 763 766 769 770 772 773 775 778 781 781 782 786 789 791 794 796 800 804 811 816 816 816 819 819 820 820
750 751 755 764 766 773 774 776 779 774 770 769 766 768 767 767 768 769 767 765 767 767 765 765 766 767 770 773 775 777 779 780 780 780 783 784 788 791 795 799 804 808 811 814 815 817 817 817 818
757 753 760 764 778 764 770 775 778 777 772 773 772 771 769 769 772 773 774 771 769 767 766 768 769 770 770 772 774 775 775 777 778 778 780 783 786 791 795 799 802 807 810 811 813 815 815 812 812
762 762 766 764 768 796 784 776 781 784 777 775 775 774 774 774 774 773 774 775 776 774 772 771 772 772 773 774 775 775 775 777 778 780 782 784 787 792 794 799 803 805 807 809 809 812 811 808 810